DW1449 Weather Reports


Display with metric or nautical units.
time (UTC)temp
F
wind
direction
speed
MPH
gust
MPH
rain 1hr
in
rain 24hr
in
rain mn
in
humidity
%
barometer
mb
20260506062037 47 0.0 0.0 0.00 0.00 0.00 64 1011.4
20260506061542 46 0.0 0.0 0.00 0.00 0.00 64 1011.3
20260506061035 46 0.0 0.0 0.00 0.00 0.00 64 1011.4
20260506060534 46 0.0 0.0 0.00 0.00 0.00 64 1011.4
20260506051035 44 0.0 0.0 0.00 0.00 0.00 60 1011.7
20260506050535 44 0.0 0.0 0.00 0.00 0.00 59 1011.6
20260506045034 43 0.0 0.0 0.00 0.00 0.00 59 1011.6
20260506044554 43 0.0 0.0 0.00 0.00 0.00 58 1011.7
20260506044034 42 0.0 0.0 0.00 0.00 0.00 58 1011.6
20260506043535 42 0.0 0.0 0.00 0.00 0.00 58 1011.7
20260506043043 42 0.0 0.0 0.00 0.00 0.00 57 1011.5
20260506042537 42 0.0 0.0 0.00 0.00 0.00 57 1011.4
20260506042036 42 0.0 0.0 0.00 0.00 0.00 57 1011.5
20260506041549 42 0.0 0.0 0.00 0.00 0.00 56 1011.4
20260506041046 42 0.0 0.0 0.00 0.00 0.00 56 1011.4
20260506040535 42 0.0 0.0 0.00 0.00 0.00 56 1011.3
20260506040042 42 0.0 0.0 0.00 0.00 0.00 55 1011.3
20260506035535 42 0.0 0.0 0.00 0.00 0.00 55 1011.4
20260506035035 42 0.0 0.0 0.00 0.00 0.00 55 1011.5
20260506034544 42 0.0 0.0 0.00 0.00 0.00 56 1011.4
20260506034034 42 0.0 0.0 0.00 0.00 0.00 56 1011.2
20260506033534 42 0.0 0.0 0.00 0.00 0.00 57 1011.4
20260506033046 42 0.0 0.0 0.00 0.00 0.00 58 1011.4
20260506032535 42 0.0 0.0 0.00 0.00 0.00 57 1011.4
20260506032038 42 0.0 0.0 0.00 0.00 0.00 57 1011.6
20260506031549 42 0.0 0.0 0.00 0.00 0.00 57 1011.5
20260506031035 41 0.0 0.0 0.00 0.00 0.00 57 1011.4
20260506030536 41 0.0 0.0 0.00 0.00 0.00 57 1011.5
20260506030049 41 0.0 0.0 0.00 0.00 0.00 58 1011.7
20260506025534 40 0.0 0.0 0.00 0.00 0.00 58 1011.5
20260506025034 40 0.0 0.0 0.00 0.00 0.00 58 1011.5
20260506024550 40 0.0 0.0 0.00 0.00 0.00 58 1011.6
20260506024036 40 0.0 0.0 0.00 0.00 0.00 58 1011.5
20260506023536 40 0.0 0.0 0.00 0.00 0.00 58 1011.7
20260506023047 40 0.0 0.0 0.00 0.00 0.00 57 1011.8
20260506022533 40 0.0 0.0 0.00 0.00 0.00 57 1011.8
20260506022035 40 0.0 0.0 0.00 0.00 0.00 58 1012.0
20260506021544 40 0.0 0.0 0.00 0.00 0.00 57 1011.8
20260506021036 40 0.0 0.0 0.00 0.00 0.00 57 1012.0
20260506020534 40 0.0 0.0 0.00 0.00 0.00 57 1012.1
20260506020048 41 0.0 0.0 0.00 0.00 0.00 56 1012.2
20260506015539 41 0.0 0.0 0.00 0.00 0.00 56 1012.1
20260506015035 41 0.0 0.0 0.00 0.00 0.00 56 1012.1
20260506014544 40 0.0 0.0 0.00 0.00 0.00 57 1012.2
20260506014034 40 0.0 0.0 0.00 0.00 0.00 57 1012.2
20260506013535 40 0.0 0.0 0.00 0.00 0.00 57 1012.2
20260506013050 40 0.0 0.0 0.00 0.00 0.00 58 1012.3
20260506012535 40 0.0 0.0 0.00 0.00 0.00 58 1012.2
20260506012037 40 0.0 0.0 0.00 0.00 0.00 58 1012.0
20260506011546 40 0.0 0.0 0.00 0.00 0.00 58 1012.1
20260506011036 40 0.0 0.0 0.00 0.00 0.00 57 1012.2
20260506010537 40 0.0 0.0 0.00 0.00 0.00 58 1012.1
20260506010048 40 0.0 0.0 0.00 0.00 0.00 58 1012.2
20260506005535 40 0.0 0.0 0.00 0.00 0.00 58 1012.1
20260506005035 41 0.0 0.0 0.00 0.00 0.00 58 1012.2
20260506004551 41 0.0 0.0 0.00 0.00 0.00 58 1012.1
20260506004035 41 0.0 0.0 0.00 0.00 0.00 58 1012.0
20260506003535 41 0.0 0.0 0.00 0.00 0.00 58 1012.0
20260506003042 41 0.0 0.0 0.00 0.00 0.00 58 1012.1
20260506002537 41 0.0 0.0 0.00 0.00 0.00 59 1012.1
20260506002033 41 0.0 0.0 0.00 0.00 0.00 59 1012.0
20260506001542 41 0.0 0.0 0.00 0.00 0.00 58 1012.0
20260506001035 42 0.0 0.0 0.00 0.00 0.00 57 1012.1
20260506000533 42 0.0 0.0 0.00 0.00 0.00 56 1012.0
20260506000041 42 0.0 0.0 0.00 0.00 0.00 56 1011.9
20260505235532 42 0.0 0.0 0.00 0.00 0.00 57 1011.9
20260505235033 41 0.0 0.0 0.00 0.00 0.00 57 1012.1
20260505234541 41 0.0 0.0 0.00 0.00 0.00 57 1012.2
20260505234035 40 0.0 0.0 0.00 0.00 0.00 60 1012.0
20260505233532 40 0.0 0.0 0.00 0.00 0.00 62 1012.0
20260505233045 40 0.0 0.0 0.00 0.00 0.00 63 1012.1
20260505232534 40 0.0 0.0 0.00 0.00 0.00 63 1012.0
20260505232035 41 0.0 0.0 0.00 0.00 0.00 62 1011.9
20260505231554 41 0.0 0.0 0.00 0.00 0.00 62 1011.9
20260505231033 41 0.0 0.0 0.00 0.00 0.00 64 1011.9
20260505230534 40 0.0 0.0 0.00 0.00 0.00 65 1012.0
20260505230053 40 0.0 0.0 0.00 0.00 0.00 66 1012.0
20260505225533 40 0.0 0.0 0.00 0.00 0.00 67 1012.0
20260505225038 40 0.0 0.0 0.00 0.00 0.00 68 1011.9
20260505224539 40 0.0 0.0 0.00 0.00 0.00 68 1012.1
20260505224035 39 0.0 0.0 0.00 0.00 0.00 69 1012.1
20260505223536 39 0.0 0.0 0.00 0.00 0.00 69 1012.2
20260505223042 40 0.0 0.0 0.00 0.00 0.00 67 1012.2
20260505222533 41 0.0 0.0 0.00 0.00 0.00 65 1012.2
20260505222034 41 0.0 0.0 0.00 0.00 0.00 64 1012.1
20260505221542 41 0.0 0.0 0.00 0.00 0.00 64 1012.4
20260505221036 41 0.0 0.0 0.00 0.00 0.00 65 1012.3
20260505220532 41 0.0 0.0 0.00 0.00 0.00 65 1012.2
20260505220046 41 0.0 0.0 0.00 0.00 0.00 66 1012.3
20260505215534 41 0.0 0.0 0.00 0.00 0.00 67 1012.3
20260505215034 41 0.0 0.0 0.00 0.00 0.00 67 1012.3
20260505214543 41 0.0 0.0 0.00 0.00 0.00 67 1012.3
20260505214034 41 0.0 0.0 0.00 0.00 0.00 67 1012.2
20260505213533 41 0.0 0.0 0.00 0.00 0.00 67 1012.3
20260505213052 41 0.0 0.0 0.00 0.00 0.00 67 1012.3
20260505212533 41 0.0 0.0 0.00 0.00 0.00 68 1012.3
20260505212036 41 0.0 0.0 0.00 0.00 0.00 68 1012.2
20260505211548 41 0.0 0.0 0.00 0.00 0.00 68 1012.3
20260505211039 41 0.0 0.0 0.00 0.00 0.00 68 1012.2
20260505210535 41 0.0 0.0 0.00 0.00 0.00 67 1012.2
20260505210039 41 0.0 0.0 0.00 0.00 0.00 67 1012.2
20260505205538 41 0.0 0.0 0.00 0.00 0.00 68 1012.1
20260505205035 42 0.0 0.0 0.00 0.00 0.00 68 1012.1
20260505204539 42 0.0 0.0 0.00 0.00 0.00 67 1012.1
20260505204034 42 0.0 0.0 0.00 0.00 0.00 67 1012.1
20260505203536 42 0.0 0.0 0.00 0.00 0.00 67 1012.2
20260505203042 43 0.0 0.0 0.00 0.00 0.00 65 1012.3
20260505202535 43 0.0 0.0 0.00 0.00 0.00 66 1012.3
20260505202034 43 0.0 0.0 0.00 0.00 0.00 66 1012.2
20260505201547 43 0.0 0.0 0.00 0.00 0.00 66 1012.3
20260505201034 43 0.0 0.0 0.00 0.00 0.00 66 1012.1
20260505200535 43 0.0 0.0 0.00 0.00 0.00 66 1012.2
20260505200040 44 0.0 0.0 0.00 0.00 0.00 66 1012.3
20260505195535 44 0.0 0.0 0.00 0.00 0.00 65 1012.2
20260505195034 44 0.0 0.0 0.00 0.00 0.00 65 1012.1
20260505194539 44 0.0 0.0 0.00 0.00 0.00 65 1012.1
20260505194034 44 0.0 0.0 0.00 0.00 0.00 65 1012.1
20260505193534 45 0.0 0.0 0.00 0.00 0.00 64 1012.1
20260505193040 45 0.0 0.0 0.00 0.00 0.00 65 1012.1
20260505192535 45 0.0 0.0 0.00 0.00 0.00 65 1012.1
20260505192035 45 0.0 0.0 0.00 0.00 0.00 65 1012.0
20260505191559 46 0.0 0.0 0.00 0.00 0.00 63 1012.2
20260505191034 46 0.0 0.0 0.00 0.00 0.00 62 1012.0
20260505190534 47 0.0 0.0 0.00 0.00 0.00 61 1012.0
20260505190042 47 0.0 0.0 0.00 0.00 0.00 61 1012.0
20260505185534 47 0.0 0.0 0.00 0.00 0.00 60 1011.9
20260505185035 47 0.0 0.0 0.00 0.00 0.00 59 1012.0
20260505184549 48 0.0 0.0 0.00 0.00 0.00 58 1011.9
20260505184036 48 0.0 0.0 0.00 0.00 0.00 58 1011.9
20260505183535 48 0.0 0.0 0.00 0.00 0.00 57 1011.8
20260505183045 49 0.0 0.0 0.00 0.00 0.00 56 1012.0
20260505182535 49 0.0 0.0 0.00 0.00 0.00 56 1012.0
20260505182038 49 0.0 0.0 0.00 0.00 0.00 55 1011.9
20260505181544 49 0.0 0.0 0.00 0.00 0.00 54 1011.8
20260505181035 49 0.0 0.0 0.00 0.00 0.00 55 1011.9
20260505180533 50 0.0 0.0 0.00 0.00 0.00 54 1011.9
20260505180059 50 0.0 0.0 0.00 0.00 0.00 53 1011.9
20260505175536 50 0.0 0.0 0.00 0.00 0.00 52 1011.9
20260505175034 50 0.0 0.0 0.00 0.00 0.00 52 1011.9
20260505174552 50 0.0 0.0 0.00 0.00 0.00 53 1011.8
20260505174038 50 0.0 0.0 0.00 0.00 0.00 53 1011.8
20260505173536 50 0.0 0.0 0.00 0.00 0.00 52 1011.9
20260505173049 50 0.0 0.0 0.00 0.00 0.00 53 1011.7
20260505172537 50 0.0 0.0 0.00 0.00 0.00 53 1011.8
20260505172035 50 0.0 0.0 0.00 0.00 0.00 54 1012.0
20260505171549 50 0.0 0.0 0.00 0.00 0.00 53 1011.9
20260505171037 50 0.0 0.0 0.00 0.00 0.00 54 1011.8
20260505170540 50 0.0 0.0 0.00 0.00 0.00 55 1011.9
20260505170049 50 0.0 0.0 0.00 0.00 0.00 56 1011.7
20260505165536 50 0.0 0.0 0.00 0.00 0.00 55 1011.7
20260505165036 50 0.0 0.0 0.00 0.00 0.00 55 1011.9
20260505164549 50 0.0 0.0 0.00 0.00 0.00 55 1011.8
20260505164037 51 0.0 0.0 0.00 0.00 0.00 54 1011.8
20260505163536 51 0.0 0.0 0.00 0.00 0.00 52 1011.8
20260505163043 51 0.0 0.0 0.00 0.00 0.00 51 1011.9
20260505162535 51 0.0 0.0 0.00 0.00 0.00 48 1011.8
20260505162036 51 0.0 0.0 0.00 0.00 0.00 49 1011.9
20260505161550 51 0.0 0.0 0.00 0.00 0.00 47 1011.8
20260505161035 51 0.0 0.0 0.00 0.00 0.00 46 1011.9
20260505160537 51 0.0 0.0 0.00 0.00 0.00 49 1011.8
20260505153047 52 0.0 0.0 0.00 0.00 0.00 42 1011.8
20260505152537 53 0.0 0.0 0.00 0.00 0.00 42 1011.7
20260505152035 53 0.0 0.0 0.00 0.00 0.00 42 1011.8
20260505151546 53 0.0 0.0 0.00 0.00 0.00 42 1011.8
20260505151038 53 0.0 0.0 0.00 0.00 0.00 42 1011.6
20260505150536 53 0.0 0.0 0.00 0.00 0.00 41 1011.6
20260505140536 53 0.0 0.0 0.00 0.00 0.00 40 1011.8
20260505125035 53 0.0 0.0 0.00 0.00 0.00 47 1012.0
20260505124542 54 0.0 0.0 0.00 0.00 0.00 40 1012.0
20260505124035 54 0.0 0.0 0.00 0.00 0.00 43 1012.0
20260505123537 54 0.0 0.0 0.00 0.00 0.00 36 1011.9
20260505123047 54 0.0 0.0 0.00 0.00 0.00 38 1011.9
20260505122536 54 0.0 0.0 0.00 0.00 0.00 41 1012.1
20260505122036 53 0.0 0.0 0.00 0.00 0.00 42 1012.1
20260505121542 53 0.0 0.0 0.00 0.00 0.00 38 1012.0
20260505121035 54 0.0 0.0 0.00 0.00 0.00 41 1012.0
20260505120534 54 0.0 0.0 0.00 0.00 0.00 40 1012.0
20260505120042 54 0.0 0.0 0.00 0.00 0.00 49 1011.8
20260505115535 54 0.0 0.0 0.00 0.00 0.00 41 1011.9
20260505115035 54 0.0 0.0 0.00 0.00 0.00 44 1012.0
20260505114542 53 0.0 0.0 0.00 0.00 0.00 47 1011.8
20260505114034 53 0.0 0.0 0.00 0.00 0.00 50 1012.0
20260505113533 54 0.0 0.0 0.00 0.00 0.00 63 1011.9
20260505113051 53 0.0 0.0 0.00 0.00 0.00 60 1012.0
20260505112535 53 0.0 0.0 0.00 0.00 0.00 57 1012.1
20260505112034 53 0.0 0.0 0.00 0.00 0.00 61 1012.0
20260505111545 53 0.0 0.0 0.00 0.00 0.00 51 1012.1
20260505111036 53 0.0 0.0 0.00 0.00 0.00 64 1012.0
20260505110538 53 0.0 0.0 0.00 0.00 0.00 62 1011.9
20260505102035 51 0.0 0.0 0.00 0.00 0.00 64 1012.2
20260505101557 51 0.0 0.0 0.00 0.00 0.00 68 1012.2
20260505101035 52 0.0 0.0 0.00 0.00 0.00 68 1012.2
20260505100536 52 0.0 0.0 0.00 0.00 0.00 66 1012.2
20260505100057 52 0.0 0.0 0.00 0.00 0.00 68 1012.2
20260505095537 51 0.0 0.0 0.00 0.00 0.00 67 1012.2
20260505095035 52 0.0 0.0 0.00 0.00 0.00 70 1012.2
20260505094545 51 0.0 0.0 0.00 0.00 0.00 74 1012.2
20260505094034 51 0.0 0.0 0.00 0.00 0.00 74 1012.2
20260505093536 51 0.0 0.0 0.00 0.00 0.00 74 1012.1
20260505093044 51 0.0 0.0 0.00 0.00 0.00 76 1012.3
20260505092536 50 0.0 0.0 0.00 0.00 0.00 76 1012.2
20260505092037 51 0.0 0.0 0.00 0.00 0.00 77 1012.3
20260505091543 51 0.0 0.0 0.00 0.00 0.00 74 1012.3
20260505091034 51 0.0 0.0 0.00 0.00 0.00 73 1012.1
20260505090535 50 0.0 0.0 0.00 0.00 0.00 74 1012.3
20260505090041 50 0.0 0.0 0.00 0.00 0.00 78 1012.4
20260505085533 50 0.0 0.0 0.00 0.00 0.00 76 1012.5
20260505085039 51 0.0 0.0 0.00 0.00 0.00 73 1012.4
20260505084539 50 0.0 0.0 0.00 0.00 0.00 72 1012.4
20260505084035 50 0.0 0.0 0.00 0.00 0.00 75 1012.4
20260505083535 50 0.0 0.0 0.00 0.00 0.00 73 1012.4
20260505083042 50 0.0 0.0 0.00 0.00 0.00 74 1012.2
20260505082536 50 0.0 0.0 0.00 0.00 0.00 78 1012.3
20260505082034 49 0.0 0.0 0.00 0.00 0.00 80 1012.2
20260505081553 49 0.0 0.0 0.00 0.00 0.00 77 1012.4
20260505081036 49 0.0 0.0 0.00 0.00 0.00 80 1012.3
20260505080536 49 0.0 0.0 0.00 0.00 0.00 78 1012.2
20260505080053 49 0.0 0.0 0.00 0.00 0.00 78 1012.2
20260505075535 49 0.0 0.0 0.00 0.00 0.00 79 1012.1
20260505075034 49 0.0 0.0 0.00 0.00 0.00 81 1012.0
20260505074541 49 0.0 0.0 0.00 0.00 0.00 81 1012.1
20260505074035 49 0.0 0.0 0.00 0.00 0.00 82 1012.2
20260505073533 49 0.0 0.0 0.00 0.00 0.00 82 1012.3
20260505073048 48 0.0 0.0 0.00 0.00 0.00 82 1012.2
20260505072537 48 0.0 0.0 0.00 0.00 0.00 83 1012.3
20260505072035 48 0.0 0.0 0.00 0.00 0.00 83 1012.2
20260505071551 48 0.0 0.0 0.00 0.00 0.00 83 1012.1
20260505071036 48 0.0 0.0 0.00 0.00 0.00 82 1012.1
20260505070535 48 0.0 0.0 0.00 0.00 0.00 83 1012.1
20260505070042 48 0.0 0.0 0.00 0.00 0.00 83 1012.1